OBJECT XK, 65731

Orbit data source: Space-Track

You're viewing an Uncataloged Satellite

Recently launched and/or uncataloged satellites may have evolving metadata. Metadata may include but not limited to: Owner, Maufacturer, Bus, Motor, and Mission.

OBJECT XK, 65731 is a Japanese satellite in LEO that was delivered to and deployed from the ISS. Unknown objects in Earth's orbit typically refer to objects detected orbiting the Earth but have not yet been identified or cataloged. These objects could be anything from previously untracked satellites, spent rocket stages, debris from satellite collisions, or even natural meteoroids temporarily captured by Earth's gravity.

Loading next visibility...
Identifier
65731, 1998-067XK
Orbit
LEO
Country
Flag of JPJP / JPN
Related business
None
Manufacturer
Unknown
Mission
Operational Amateur Technology
Bus & Motor
Unknown
Mass
Unknown
Launch date (UTC)
1998-11-20 (27 years ago)
Launch vehicle
FALCON 9
Launch site
Tyuratam Missile And Space Complex (TTMTR)
Object type
Unknown
Shape & HBR
Box + 1 Tether, 0.1 m
Radar Cross Section
0.015 m²

Expand to show TLE details & history
Last TLE update: 9 hours ago

TLE from 9 hours ago
0 OBJECT XK
1 65731U 98067XK  26035.68271661  .00241544  00000-0  11141-2 0  9995
2 65731  51.6223 220.7082 0003525 230.7997 129.2693 15.82313285 21638
Epoch: 2026-02-04T16:23Z
TLE epoch observation values (Epoch: 2026-02-04T16:23:06.715Z)
Latitude
0.00002°
Longitude
-159.91555°
Altitude
326.146 km
Speed
7.713 km/s
True Right ascension
14h 42m 49s
True Declination
0° 00' 00"
Sunlit
Object was in daylight at epoch
Visualization orbit readout
Latitude
Unknown
Longitude
Unknown
Altitude
Unknown
Speed
Unknown
Apparent Right ascension
Unknown
Apparent Declination
Unknown
Sunlit
N/A
Visualization observer readout
Local Sidereal Time
03:04:12
Azimuth
Unknown
Elevation
Unknown
Doppler factor
Unknown
Orbital elements
Apogee altitude
326.781 km
Perigee altitude
322.056 km
Semi-major axis
6,702.555 km
Eccentricity
0.00035
Inclination
51.6223°
RAAN
220.7082°
Arg. of periapsis
230.7997°
True anomaly
129.30056°
Mean anomaly
129.2693°
Eccentric anomaly
129.28493°
Mean motion
3.95533 °/min
Orbital period
91.02 mins
BSTAR
0.0011141
Loading maneuver chart data...
Computing Atmospheric mass density...

Documentation

Showing up to 5 results
|